Weather History for Coldwater, MI

Change the Weather History Date:

Sunday, January 12, 2014

  Actual Average (KJYM) Record (KJYM)
Temperature  
Mean Temperature 34 °F -  
Max Temperature 40 °F 29 °F 60 °F (2013)
Min Temperature 30 °F 11 °F -17 °F (1984)
Degree Days  
Heating Degree Days 30    
Moisture  
Dew Point 28 °F    
Average Humidity 82    
Maximum Humidity 92    
Minimum Humidity 68    
Precipitation  
Precipitation 0.00 in - - ()
Sea Level Pressure  
Sea Level Pressure 29.80 in    
Wind  
Wind Speed 12 mph (SW)    
Max Wind Speed 17 mph    
Max Gust Speed 25 mph    
Visibility 9 miles    
Events      
Averages and records for this station are not official NWS values.
T = Trace of Precipitation, MM = Missing Value Source: NWS Daily Summary

Daily Weather History Graph

Daily Weather History Graph

Search for Another Location

Airport:

Trip Planner

Search our weather history database for the weather conditions in past years. The results will help you decide how hot, cold, wet, or windy it might be!

Date:

Astronomy

Jan. 12, 2014 Rise Set
Actual Time 8:06 AM EST 5:30 PM EST
Civil Twilight 7:35 AM EST 6:01 PM EST
Nautical Twilight 7:01 AM EST 6:36 PM EST
Astronomical Twilight 6:27 AM EST 7:09 PM EST
Moon 2:58 PM EST (1/12) 5:04 AM EST (1/12)
Length of Visible Light 10h 26m
Length of Day
9h 24m
Waxing Gibbous, 89% of the Moon is Illuminated
Jan 12
Waxing Gibbous
Jan 15
Full
Jan 24
Last Quarter
Jan 30
New
Feb 6
First Quarter

Hourly Weather History & Observations

Time (EST) Temp. Windchill Dew Point Humidity Pressure Visibility Wind Dir Wind Speed Gust Speed Precip Events Conditions
12:15 AM 32.0 °F 21.2 °F 29.8 °F 92% 29.69 in 5.0 mi West 16.1 mph 25.3 mph N/A   Overcast
12:35 AM 32.0 °F 22.1 °F 29.7 °F 91% 29.69 in 7.0 mi West 13.8 mph - N/A   Overcast
12:54 AM 32.0 °F 22.5 °F 29.3 °F 90% 29.70 in 7.0 mi West 12.7 mph 20.7 mph N/A   Overcast
1:15 AM 32.0 °F 22.1 °F 28.6 °F 87% 29.69 in 7.0 mi WNW 13.8 mph 23.0 mph N/A   Overcast
1:34 AM 32.0 °F 22.1 °F 28.6 °F 87% 29.70 in 7.0 mi WNW 13.8 mph - N/A   Overcast
1:55 AM 32.0 °F 23.6 °F 28.8 °F 88% 29.71 in 7.0 mi West 10.4 mph 16.1 mph N/A   Overcast
2:15 AM 32.0 °F 24.2 °F 28.8 °F 88% 29.72 in 7.0 mi WNW 9.2 mph - N/A   Overcast
2:34 AM 32.0 °F 22.1 °F 28.2 °F 86% 29.73 in 7.0 mi WNW 13.8 mph 23.0 mph N/A   Overcast
2:55 AM 32.0 °F 24.2 °F 28.9 °F 88% 29.74 in 7.0 mi West 9.2 mph - N/A   Overcast
3:15 AM 32.0 °F 23.0 °F 28.9 °F 88% 29.76 in 7.0 mi West 11.5 mph 18.4 mph N/A   Overcast
3:35 AM 32.0 °F 23.0 °F 28.8 °F 88% 29.76 in 7.0 mi WNW 11.5 mph 17.3 mph N/A   Overcast
3:55 AM 32.0 °F 24.2 °F 29.3 °F 90% 29.77 in 7.0 mi West 9.2 mph - N/A   Overcast
4:15 AM 32.0 °F 23.6 °F 29.3 °F 90% 29.78 in 7.0 mi West 10.4 mph - N/A   Overcast
4:35 AM 32.0 °F 23.6 °F 29.1 °F 89% 29.79 in 7.0 mi West 10.4 mph - N/A   Overcast
4:55 AM 32.0 °F 21.2 °F 28.9 °F 88% 29.80 in 7.0 mi West 16.1 mph - N/A   Overcast
5:14 AM 32.0 °F 20.8 °F 28.0 °F 85% 29.81 in 7.0 mi West 17.3 mph 20.7 mph N/A   Overcast
5:35 AM 31.3 °F 22.1 °F 26.6 °F 83% 29.81 in 10.0 mi West 11.5 mph - N/A   Overcast
5:55 AM 31.1 °F 20.9 °F 26.1 °F 82% 29.81 in 10.0 mi West 13.8 mph - N/A   Overcast
6:14 AM 30.9 °F 21.2 °F 25.7 °F 81% 29.81 in 10.0 mi West 12.7 mph - N/A   Overcast
6:35 AM 30.9 °F 23.5 °F 26.1 °F 82% 29.82 in 10.0 mi West 8.1 mph - N/A   Overcast
6:55 AM 30.7 °F 26.0 °F 27.0 °F 86% 29.83 in 10.0 mi WSW 4.6 mph - N/A   Overcast
7:14 AM 30.9 °F 25.2 °F 26.4 °F 83% 29.84 in 10.0 mi WSW 5.8 mph - N/A   Overcast
7:35 AM 30.7 °F 23.3 °F 26.4 °F 84% 29.85 in 10.0 mi WSW 8.1 mph - N/A   Overcast
7:55 AM 30.6 °F 23.1 °F 26.2 °F 84% 29.86 in 7.0 mi WSW 8.1 mph - N/A   Overcast
8:14 AM 30.4 °F 23.6 °F 25.9 °F 83% 29.86 in 7.0 mi WSW 6.9 mph - N/A   Overcast
8:35 AM 30.2 °F 22.6 °F 26.4 °F 86% 29.87 in 7.0 mi SW 8.1 mph - N/A   Overcast
8:55 AM 30.0 °F 22.4 °F 26.1 °F 85% 29.88 in 7.0 mi SW 8.1 mph - N/A   Overcast
9:14 AM 30.2 °F 21.3 °F 25.9 °F 84% 29.89 in 7.0 mi WSW 10.4 mph - N/A   Overcast
9:35 AM 30.2 °F 21.3 °F 26.4 °F 86% 29.91 in 5.0 mi SW 10.4 mph - N/A   Overcast
9:55 AM 30.6 °F 20.7 °F 26.4 °F 85% 29.92 in 7.0 mi SW 12.7 mph 18.4 mph N/A   Overcast
10:14 AM 30.6 °F 21.2 °F 26.8 °F 86% 29.93 in 7.0 mi SW 11.5 mph 18.4 mph N/A   Overcast
10:35 AM 30.2 °F 21.9 °F 27.0 °F 88% 29.93 in 7.0 mi SSW 9.2 mph 17.3 mph N/A   Overcast
10:54 AM 30.7 °F 20.9 °F 27.1 °F 86% 29.94 in 7.0 mi WSW 12.7 mph 17.3 mph N/A   Overcast
11:15 AM 31.1 °F 20.9 °F 27.3 °F 86% 29.93 in 7.0 mi SSW 13.8 mph - N/A   Overcast
11:34 AM 30.9 °F 20.2 °F 27.1 °F 86% 29.93 in 7.0 mi SW 15.0 mph - N/A   Overcast
11:55 AM 32.0 °F 24.8 °F 27.3 °F 83% 29.90 in 10.0 mi South 8.1 mph - N/A   Overcast
12:15 PM 32.0 °F 24.2 °F 27.3 °F 83% 29.89 in 10.0 mi South 9.2 mph - N/A   Scattered Clouds
12:34 PM 32.4 °F 24.0 °F 27.7 °F 83% 29.90 in 10.0 mi SSW 10.4 mph - N/A   Scattered Clouds
12:55 PM 32.7 °F 23.4 °F 27.5 °F 81% 29.88 in 10.0 mi SSW 12.7 mph - N/A   Scattered Clouds
1:15 PM 33.3 °F 25.7 °F 27.3 °F 79% 29.86 in 10.0 mi South 9.2 mph - N/A   Clear
1:34 PM 33.4 °F 27.3 °F 27.9 °F 80% 29.85 in 10.0 mi SSE 6.9 mph - N/A   Clear
1:55 PM 33.8 °F 25.3 °F 27.5 °F 78% 29.82 in 10.0 mi South 11.5 mph - N/A   Clear
2:15 PM 33.8 °F 25.3 °F 27.5 °F 78% 29.83 in 10.0 mi South 11.5 mph 16.1 mph N/A   Clear
2:35 PM 34.7 °F 26.4 °F 27.9 °F 76% 29.83 in 10.0 mi South 11.5 mph 17.3 mph N/A   Clear
2:55 PM 34.7 °F 26.9 °F 27.5 °F 75% 29.83 in 10.0 mi South 10.4 mph 18.4 mph N/A   Clear
3:15 PM 34.7 °F 26.4 °F 27.5 °F 75% 29.83 in 10.0 mi South 11.5 mph 17.3 mph N/A   Clear
3:35 PM 34.7 °F 26.9 °F 27.7 °F 76% 29.82 in 10.0 mi South 10.4 mph - N/A   Clear
3:55 PM 34.0 °F 25.5 °F 27.7 °F 78% 29.81 in 10.0 mi South 11.5 mph 19.6 mph N/A   Clear
4:15 PM 33.8 °F 24.8 °F 27.9 °F 79% 29.81 in 10.0 mi South 12.7 mph 17.3 mph N/A   Clear
4:35 PM 33.4 °F 25.9 °F 27.5 °F 79% 29.81 in 10.0 mi South 9.2 mph 16.1 mph N/A   Clear
4:55 PM 33.4 °F 24.3 °F 27.3 °F 78% 29.81 in 10.0 mi South 12.7 mph - N/A   Clear
5:15 PM 33.4 °F 24.3 °F 27.7 °F 79% 29.81 in 10.0 mi South 12.7 mph 16.1 mph N/A   Clear
5:35 PM 33.3 °F 23.2 °F 28.4 °F 82% 29.79 in 10.0 mi SSE 15.0 mph 24.2 mph N/A   Clear
5:54 PM 33.4 °F 23.1 °F 28.4 °F 82% 29.79 in 10.0 mi SSE 16.1 mph 24.2 mph N/A   Clear
6:15 PM 33.4 °F 23.9 °F 28.6 °F 82% 29.78 in 10.0 mi South 13.8 mph 24.2 mph N/A   Clear
6:35 PM 33.8 °F 23.9 °F 28.8 °F 82% 29.78 in 10.0 mi South 15.0 mph 21.9 mph N/A   Clear
6:54 PM 34.2 °F 24.4 °F 28.6 °F 80% 29.77 in 10.0 mi South 15.0 mph 24.2 mph N/A   Clear
7:15 PM 34.5 °F 25.3 °F 29.1 °F 81% 29.77 in 10.0 mi South 13.8 mph 20.7 mph N/A   Clear
7:35 PM 34.7 °F 25.9 °F 29.5 °F 81% 29.75 in 10.0 mi South 12.7 mph 24.2 mph N/A   Clear
7:54 PM 35.2 °F 25.8 °F 29.8 °F 81% 29.74 in 10.0 mi South 15.0 mph 21.9 mph N/A   Clear
8:15 PM 35.6 °F 26.6 °F 30.2 °F 81% 29.73 in 10.0 mi South 13.8 mph 20.7 mph N/A   Clear
8:35 PM 36.1 °F 28.2 °F 30.2 °F 79% 29.74 in 10.0 mi South 11.5 mph 18.4 mph N/A   Clear
8:54 PM 36.5 °F 29.2 °F 30.0 °F 77% 29.75 in 10.0 mi SSW 10.4 mph - N/A   Clear
9:15 PM 36.3 °F 28.0 °F 29.8 °F 77% 29.74 in 10.0 mi South 12.7 mph 18.4 mph N/A   Clear
9:34 PM 36.9 °F 30.1 °F 29.7 °F 75% 29.74 in 10.0 mi South 9.2 mph 16.1 mph N/A   Clear
9:55 PM 37.4 °F 30.8 °F 29.3 °F 73% 29.74 in 10.0 mi SSW 9.2 mph 16.1 mph N/A   Clear
10:15 PM 37.9 °F 30.9 °F 29.3 °F 71% 29.75 in 10.0 mi SSW 10.4 mph 19.6 mph N/A   Clear
10:34 PM 38.7 °F 31.8 °F 29.3 °F 69% 29.74 in 10.0 mi South 10.4 mph 20.7 mph N/A   Clear
10:55 PM 38.8 °F 31.6 °F 29.3 °F 69% 29.73 in 10.0 mi South 11.5 mph 20.7 mph N/A   Clear
11:15 PM 39.0 °F 32.3 °F 29.3 °F 68% 29.73 in 10.0 mi SSW 10.4 mph 20.7 mph N/A   Clear
11:34 PM 38.7 °F 31.8 °F 29.1 °F 69% 29.72 in 10.0 mi South 10.4 mph 17.3 mph N/A   Clear
11:55 PM 38.8 °F 33.8 °F 29.1 °F 68% 29.71 in 10.0 mi SSW 6.9 mph - N/A   Clear